This demonstration page uses our WeatherBlox Daily Observations layout. Learn more.

Left ArrowRight Arrow

Hourly Observations for June 8, 2016

Temp ( °F °C ) Dew Point ( °F °C ) Humidity (%) Winds ( mph kmh ) Pressure ( in mb ) Visibility ( mi km ) Precip ( " mm )
12:53 am 00:53 Clear 80 26.7 58 14.4 47 47 SSW 7 11 29.78 1008 10 16 0.00 0.00
1:53 am 01:53 Clear 77 25 57 13.9 50 50 S 7 11 29.79 1009 10 16 0.00 0.00
2:53 am 02:53 Clear 73 22.8 58 14.4 59 59 SE 9 15 29.79 1009 10 16 0.00 0.00
3:53 am 03:53 Clear 71 21.7 58 14.4 63 63 SE 7 11 29.80 1009 10 16 0.00 0.00
4:53 am 04:53 Clear 70 21.1 58 14.4 66 66 S 7 11 29.81 1009 10 16 0.00 0.00
5:53 am 05:53 Sunny 68 20 58 14.4 70 70 S 6 9 29.81 1010 10 16 0.00 0.00
6:53 am 06:53 Sunny 68 20 58 14.4 70 70 SW 5 7 29.83 1010 10 16 0.00 0.00
7:53 am 07:53 Sunny 70 21.1 55 12.8 59 59 SSE 10 17 29.83 1010 10 16 0.00 0.00
8:53 am 08:53 Sunny 72 22.2 56 13.3 57 57 SSE 7 11 29.83 1010 10 16 0.00 0.00
9:53 am 09:53 Sunny 76 24.4 53 11.7 45 45 S 10 17 29.83 1010 10 16 0.00 0.00
10:53 am 10:53 Sunny 77 25 54 12.2 45 45 SSE 8 13 29.82 1010 10 16 0.00 0.00
11:53 am 11:53 Sunny 80 26.7 52 11.1 38 38 S 10 17 29.82 1010 10 16 0.00 0.00
12:53 pm 12:53 Sunny 81 27.2 48 8.9 32 32 SSW 7 11 29.82 1010 10 16 0.00 0.00
1:53 pm 13:53 Sunny 82 27.8 48 8.9 31 31 SSW 8 13 29.81 1010 10 16 0.00 0.00
2:53 pm 14:53 Sunny 84 28.9 46 7.8 27 27 SSW 8 13 29.79 1009 10 16 0.00 0.00
3:53 pm 15:53 Sunny 87 30.6 49 9.4 27 27 S 9 15 29.77 1008 10 16 0.00 0.00
4:53 pm 16:53 Sunny 87 30.6 46 7.8 24 24 SE 15 24 29.75 1008 10 16 0.00 0.00
5:53 pm 17:53 Sunny 86 30 47 8.3 26 26 SSE 12 19 29.74 1007 10 16 0.00 0.00
6:53 pm 18:53 Sunny 85 29.4 53 11.7 33 33 SSE 10 17 29.73 1007 10 16 0.00 0.00
7:53 pm 19:53 Sunny 83 28.3 56 13.3 40 40 SSE 8 13 29.74 1007 10 16 0.00 0.00
8:53 pm 20:53 Clear 81 27.2 54 12.2 39 39 SW 5 7 29.75 1007 10 16 0.00 0.00
9:53 pm 21:53 Clear 76 24.4 55 12.8 48 48 WSW 6 9 29.76 1008 10 16 0.00 0.00
10:53 pm 22:53 Partly Cloudy 78 25.6 53 11.7 42 42 SW 7 11 29.78 1009 10 16 0.00 0.00
11:53 pm 23:53 Clear 77 25 53 11.7 43 43 S 9 15 29.79 1009 10 16 0.00 0.00

Powered by AerisWeather